Year,Month,Day,Hour,Minute,Value (Times are PST for temperature in C)
2021,08,12,00,00,25.90
2021,08,12,00,01,25.90
2021,08,12,00,02,25.90
2021,08,12,00,03,26.00
2021,08,12,00,04,26.00
2021,08,12,00,05,26.00
2021,08,12,00,06,26.00
2021,08,12,00,07,26.00
2021,08,12,00,08,26.10
2021,08,12,00,09,26.10
2021,08,12,00,10,26.10
2021,08,12,00,11,26.10
2021,08,12,00,12,26.10
2021,08,12,00,13,26.10
2021,08,12,00,14,26.10
2021,08,12,00,15,26.10
2021,08,12,00,16,26.00
2021,08,12,00,17,26.00
2021,08,12,00,18,26.00
2021,08,12,00,19,26.00
2021,08,12,00,20,25.90
2021,08,12,00,21,25.90
2021,08,12,00,22,25.90
2021,08,12,00,23,25.80
2021,08,12,00,24,25.80
2021,08,12,00,25,25.80
2021,08,12,00,26,25.80
2021,08,12,00,27,25.80
2021,08,12,00,28,25.70
2021,08,12,00,29,25.70
2021,08,12,00,30,25.60
2021,08,12,00,31,25.60
2021,08,12,00,32,25.60
2021,08,12,00,33,25.50
2021,08,12,00,34,25.50
2021,08,12,00,35,25.50
2021,08,12,00,36,25.40
2021,08,12,00,37,25.40
2021,08,12,00,38,25.40
2021,08,12,00,39,25.30
2021,08,12,00,40,25.30
2021,08,12,00,41,25.30
2021,08,12,00,42,25.30
2021,08,12,00,43,25.20
2021,08,12,00,44,25.20
2021,08,12,00,45,25.20
2021,08,12,00,46,25.20
2021,08,12,00,47,25.20
2021,08,12,00,48,25.10
2021,08,12,00,49,25.10
2021,08,12,00,50,25.10
2021,08,12,00,51,25.00
2021,08,12,00,52,25.00
2021,08,12,00,53,24.90
2021,08,12,00,54,24.90
2021,08,12,00,55,24.90
2021,08,12,00,56,24.90
2021,08,12,00,57,24.90
2021,08,12,00,58,24.90
2021,08,12,00,59,24.90
2021,08,12,01,00,24.90
2021,08,12,01,01,24.90
2021,08,12,01,02,24.90
2021,08,12,01,03,24.90
2021,08,12,01,04,24.90
2021,08,12,01,05,24.90
2021,08,12,01,06,24.90
2021,08,12,01,07,24.80
2021,08,12,01,08,24.80
2021,08,12,01,09,24.80
2021,08,12,01,10,24.80
2021,08,12,01,11,24.80
2021,08,12,01,12,24.80
2021,08,12,01,13,24.70
2021,08,12,01,14,24.70
2021,08,12,01,15,24.70
2021,08,12,01,16,24.60
2021,08,12,01,17,24.60
2021,08,12,01,18,24.60
2021,08,12,01,19,24.60
2021,08,12,01,20,24.60
2021,08,12,01,21,24.60
2021,08,12,01,22,24.60
2021,08,12,01,23,24.60
2021,08,12,01,24,24.50
2021,08,12,01,25,24.50
2021,08,12,01,26,24.40
2021,08,12,01,27,24.40
2021,08,12,01,28,24.40
2021,08,12,01,29,24.40
2021,08,12,01,30,24.40
2021,08,12,01,31,24.40
2021,08,12,01,32,24.30
2021,08,12,01,33,24.30
2021,08,12,01,34,24.30
2021,08,12,01,35,24.30
2021,08,12,01,36,24.20
2021,08,12,01,37,24.20
2021,08,12,01,38,24.20
2021,08,12,01,39,24.20
2021,08,12,01,40,24.20
2021,08,12,01,41,24.10
2021,08,12,01,42,24.10
2021,08,12,01,43,24.10
2021,08,12,01,44,24.10
2021,08,12,01,45,24.10
2021,08,12,01,46,24.00
2021,08,12,01,47,24.00
2021,08,12,01,48,24.00
2021,08,12,01,49,24.00
2021,08,12,01,50,24.00
2021,08,12,01,51,24.00
2021,08,12,01,52,24.00
2021,08,12,01,53,23.90
2021,08,12,01,54,23.90
2021,08,12,01,55,24.00
2021,08,12,01,56,24.00
2021,08,12,01,57,24.00
2021,08,12,01,58,24.00
2021,08,12,01,59,24.00
2021,08,12,02,00,24.00
2021,08,12,02,01,24.00
2021,08,12,02,02,24.00
2021,08,12,02,03,24.00
2021,08,12,02,04,24.10
2021,08,12,02,05,24.10
2021,08,12,02,06,24.10
2021,08,12,02,07,24.10
2021,08,12,02,08,24.10
2021,08,12,02,09,24.10
2021,08,12,02,10,24.10
2021,08,12,02,11,24.10
2021,08,12,02,12,24.10
2021,08,12,02,13,24.10
2021,08,12,02,14,24.10
2021,08,12,02,15,24.20
2021,08,12,02,16,24.20
2021,08,12,02,17,24.20
2021,08,12,02,18,24.20
2021,08,12,02,19,24.20
2021,08,12,02,20,24.20
2021,08,12,02,21,24.20
2021,08,12,02,22,24.20
2021,08,12,02,23,24.20
2021,08,12,02,24,24.20
2021,08,12,02,25,24.20
2021,08,12,02,26,24.20
2021,08,12,02,27,24.20
2021,08,12,02,28,24.20
2021,08,12,02,29,24.20
2021,08,12,02,30,24.20
2021,08,12,02,31,24.10
2021,08,12,02,32,24.10
2021,08,12,02,33,24.10
2021,08,12,02,34,24.10
2021,08,12,02,35,24.10
2021,08,12,02,36,24.10
2021,08,12,02,37,24.10
2021,08,12,02,38,24.10
2021,08,12,02,39,24.10
2021,08,12,02,40,24.10
2021,08,12,02,41,24.10
2021,08,12,02,42,24.10
2021,08,12,02,43,24.10
2021,08,12,02,44,24.20
2021,08,12,02,45,24.20
2021,08,12,02,46,24.20
2021,08,12,02,47,24.20
2021,08,12,02,48,24.20
2021,08,12,02,49,24.30
2021,08,12,02,50,24.30
2021,08,12,02,51,24.30
2021,08,12,02,52,24.30
2021,08,12,02,53,24.30
2021,08,12,02,54,24.30
2021,08,12,02,55,24.30
2021,08,12,02,56,24.30
2021,08,12,02,57,24.30
2021,08,12,02,58,24.30
2021,08,12,02,59,24.30
2021,08,12,03,00,24.30
2021,08,12,03,01,24.30
2021,08,12,03,02,24.30
2021,08,12,03,03,24.30
2021,08,12,03,04,24.20
2021,08,12,03,05,24.30
2021,08,12,03,06,24.20
2021,08,12,03,07,24.20
2021,08,12,03,08,24.20
2021,08,12,03,09,24.20
2021,08,12,03,10,24.20
2021,08,12,03,11,24.20
2021,08,12,03,12,24.20
2021,08,12,03,13,24.20
2021,08,12,03,14,24.20
2021,08,12,03,15,24.20
2021,08,12,03,16,24.20
2021,08,12,03,17,24.30
2021,08,12,03,18,24.30
2021,08,12,03,19,24.30
2021,08,12,03,20,24.30
2021,08,12,03,21,24.30
2021,08,12,03,22,24.30
2021,08,12,03,23,24.30
2021,08,12,03,24,24.30
2021,08,12,03,25,24.30
2021,08,12,03,26,24.30
2021,08,12,03,27,24.30
2021,08,12,03,28,24.30
2021,08,12,03,29,24.30
2021,08,12,03,30,24.30
2021,08,12,03,31,24.30
2021,08,12,03,32,24.30
2021,08,12,03,33,24.30
2021,08,12,03,34,24.20
2021,08,12,03,35,24.20
2021,08,12,03,36,24.20
2021,08,12,03,37,24.20
2021,08,12,03,38,24.20
2021,08,12,03,39,24.20
2021,08,12,03,40,24.20
2021,08,12,03,41,24.20
2021,08,12,03,42,24.20
2021,08,12,03,43,24.30
2021,08,12,03,44,24.30
2021,08,12,03,45,24.30
2021,08,12,03,46,24.30
2021,08,12,03,47,24.30
2021,08,12,03,48,24.30
2021,08,12,03,49,24.30
2021,08,12,03,50,24.30
2021,08,12,03,51,24.30
2021,08,12,03,52,24.30
2021,08,12,03,53,24.30
2021,08,12,03,54,24.30
2021,08,12,03,55,24.30
2021,08,12,03,56,24.30
2021,08,12,03,57,24.30
2021,08,12,03,58,24.30
2021,08,12,03,59,24.30
2021,08,12,04,00,24.20
2021,08,12,04,01,24.20
2021,08,12,04,02,24.20
2021,08,12,04,03,24.20
2021,08,12,04,04,24.20
2021,08,12,04,05,24.10
2021,08,12,04,06,24.10
2021,08,12,04,07,24.10
2021,08,12,04,08,24.10
2021,08,12,04,09,24.10
2021,08,12,04,10,24.10
2021,08,12,04,11,24.10
2021,08,12,04,12,24.10
2021,08,12,04,13,24.00
2021,08,12,04,14,24.00
2021,08,12,04,15,24.00
2021,08,12,04,16,24.10
2021,08,12,04,17,24.00
2021,08,12,04,18,24.10
2021,08,12,04,19,24.00
2021,08,12,04,20,24.10
2021,08,12,04,21,24.10
2021,08,12,04,22,24.10
2021,08,12,04,23,24.10
2021,08,12,04,24,24.10
2021,08,12,04,25,24.10
2021,08,12,04,26,24.10
2021,08,12,04,27,24.10
2021,08,12,04,28,24.10
2021,08,12,04,29,24.10
2021,08,12,04,30,24.10
2021,08,12,04,31,24.20
2021,08,12,04,32,24.20
2021,08,12,04,33,24.20
2021,08,12,04,34,24.20
2021,08,12,04,35,24.10
2021,08,12,04,36,24.10
2021,08,12,04,37,24.10
2021,08,12,04,38,24.10
2021,08,12,04,39,24.10
2021,08,12,04,40,24.10
2021,08,12,04,41,24.10
2021,08,12,04,42,24.10
2021,08,12,04,43,24.10
2021,08,12,04,44,24.10
2021,08,12,04,45,24.10
2021,08,12,04,46,24.10
2021,08,12,04,47,24.10
2021,08,12,04,48,24.10
2021,08,12,04,49,24.10
2021,08,12,04,50,24.10
2021,08,12,04,51,24.10
2021,08,12,04,52,24.10
2021,08,12,04,53,24.10
2021,08,12,04,54,24.00
2021,08,12,04,55,24.00
2021,08,12,04,56,24.00
2021,08,12,04,57,24.00
2021,08,12,04,58,24.00
2021,08,12,04,59,24.00
2021,08,12,05,00,24.00
2021,08,12,05,01,24.00
2021,08,12,05,02,24.00
2021,08,12,05,03,24.00
2021,08,12,05,04,24.00
2021,08,12,05,05,24.00
2021,08,12,05,06,24.00
2021,08,12,05,07,24.00
2021,08,12,05,08,24.00
2021,08,12,05,09,24.00
2021,08,12,05,10,24.00
2021,08,12,05,11,24.10
2021,08,12,05,12,24.10
2021,08,12,05,13,24.10
2021,08,12,05,14,24.10
2021,08,12,05,15,24.20
2021,08,12,05,16,24.20
2021,08,12,05,17,24.20
2021,08,12,05,18,24.20
2021,08,12,05,19,24.20
2021,08,12,05,20,24.30
2021,08,12,05,21,24.30
2021,08,12,05,22,24.30
2021,08,12,05,23,24.40
2021,08,12,05,24,24.40
2021,08,12,05,25,24.40
2021,08,12,05,26,24.40
2021,08,12,05,27,24.50
2021,08,12,05,28,24.50
2021,08,12,05,29,24.50
2021,08,12,05,30,24.50
2021,08,12,05,31,24.60
2021,08,12,05,32,24.60
2021,08,12,05,33,24.60
2021,08,12,05,34,24.60
2021,08,12,05,35,24.60
2021,08,12,05,36,24.60
2021,08,12,05,37,24.50
2021,08,12,05,38,24.50
2021,08,12,05,39,24.50
2021,08,12,05,40,24.50
2021,08,12,05,41,24.50
2021,08,12,05,42,24.50
2021,08,12,05,43,24.50
2021,08,12,05,44,24.50
2021,08,12,05,45,24.60
2021,08,12,05,46,24.50
2021,08,12,05,47,24.60
2021,08,12,05,48,24.60
2021,08,12,05,49,24.60
2021,08,12,05,50,24.60
2021,08,12,05,51,24.60
2021,08,12,05,52,24.60
2021,08,12,05,53,24.60
2021,08,12,05,54,24.60
2021,08,12,05,55,24.60
2021,08,12,05,56,24.60
2021,08,12,05,57,24.50
2021,08,12,05,58,24.50
2021,08,12,05,59,24.60
2021,08,12,06,00,24.60
2021,08,12,06,01,24.60
2021,08,12,06,02,24.60
2021,08,12,06,03,24.60
2021,08,12,06,04,24.60
2021,08,12,06,05,24.60
2021,08,12,06,06,24.60
2021,08,12,06,07,24.60
2021,08,12,06,08,24.60
2021,08,12,06,09,24.60
2021,08,12,06,10,24.60
2021,08,12,06,11,24.60
2021,08,12,06,12,24.60
2021,08,12,06,13,24.60
2021,08,12,06,14,24.60
2021,08,12,06,15,24.60
2021,08,12,06,16,24.60
2021,08,12,06,17,24.60
2021,08,12,06,18,24.70
2021,08,12,06,19,24.60
2021,08,12,06,20,24.60
2021,08,12,06,21,24.60
2021,08,12,06,22,24.60
2021,08,12,06,23,24.60
2021,08,12,06,24,24.60
2021,08,12,06,25,24.60
2021,08,12,06,26,24.60
2021,08,12,06,27,24.60
2021,08,12,06,28,24.60
2021,08,12,06,29,24.60
2021,08,12,06,30,24.60
2021,08,12,06,31,24.60
2021,08,12,06,32,24.60
2021,08,12,06,33,24.60
2021,08,12,06,34,24.60
2021,08,12,06,35,24.60
2021,08,12,06,36,24.60
2021,08,12,06,37,24.60
2021,08,12,06,38,24.60
2021,08,12,06,39,24.60
2021,08,12,06,40,24.60
2021,08,12,06,41,24.60
2021,08,12,06,42,24.60
2021,08,12,06,43,24.60
2021,08,12,06,44,24.60
2021,08,12,06,45,24.60
2021,08,12,06,46,24.60
2021,08,12,06,47,24.60
2021,08,12,06,48,24.60
2021,08,12,06,49,24.60
2021,08,12,06,50,24.50
2021,08,12,06,51,24.50
2021,08,12,06,52,24.50
2021,08,12,06,53,24.50
2021,08,12,06,54,24.50
2021,08,12,06,55,24.50
2021,08,12,06,56,24.50
2021,08,12,06,57,24.40
2021,08,12,06,58,24.30
2021,08,12,06,59,24.20
2021,08,12,07,00,24.00
2021,08,12,07,01,23.90
2021,08,12,07,02,23.70
2021,08,12,07,03,23.60
2021,08,12,07,04,23.50
2021,08,12,07,05,23.40
2021,08,12,07,06,23.40
2021,08,12,07,07,23.30
2021,08,12,07,08,23.30
2021,08,12,07,09,23.30
2021,08,12,07,10,23.30
2021,08,12,07,11,23.30
2021,08,12,07,12,23.30
2021,08,12,07,13,23.30
2021,08,12,07,14,23.30
2021,08,12,07,15,23.30
2021,08,12,07,16,23.30
2021,08,12,07,17,23.30
2021,08,12,07,18,23.30
2021,08,12,07,19,23.30
2021,08,12,07,20,23.30
2021,08,12,07,21,23.30
2021,08,12,07,22,23.20
2021,08,12,07,23,23.20
2021,08,12,07,24,23.20
2021,08,12,07,25,23.20
2021,08,12,07,26,23.20
2021,08,12,07,27,23.20
2021,08,12,07,28,23.20
2021,08,12,07,29,23.20
2021,08,12,07,30,23.30
2021,08,12,07,31,23.30
2021,08,12,07,32,23.30
2021,08,12,07,33,23.40
2021,08,12,07,34,23.40
2021,08,12,07,35,23.40
2021,08,12,07,36,23.40
2021,08,12,07,37,23.50
2021,08,12,07,38,23.50
2021,08,12,07,39,23.50
2021,08,12,07,40,23.60
2021,08,12,07,41,23.60
2021,08,12,07,42,23.60
2021,08,12,07,43,23.60
2021,08,12,07,44,23.60
2021,08,12,07,45,23.60
2021,08,12,07,46,23.60
2021,08,12,07,47,23.60
2021,08,12,07,48,23.60
2021,08,12,07,49,23.70
2021,08,12,07,50,23.70
2021,08,12,07,51,23.70
2021,08,12,07,52,23.70
2021,08,12,07,53,23.80
2021,08,12,07,54,23.80
2021,08,12,07,55,23.80
2021,08,12,07,56,23.80
2021,08,12,07,57,23.80
2021,08,12,07,58,23.80
2021,08,12,07,59,23.90
2021,08,12,08,00,23.90
2021,08,12,08,01,23.90
2021,08,12,08,02,23.90
2021,08,12,08,03,23.90
2021,08,12,08,04,23.90
2021,08,12,08,05,23.90
2021,08,12,08,06,23.90
2021,08,12,08,07,24.00
2021,08,12,08,08,24.00
2021,08,12,08,09,24.00
2021,08,12,08,10,24.00
2021,08,12,08,11,24.00
2021,08,12,08,12,24.00
2021,08,12,08,13,24.00
2021,08,12,08,14,24.10
2021,08,12,08,15,24.10
2021,08,12,08,16,24.10
2021,08,12,08,17,24.10
2021,08,12,08,18,24.10
2021,08,12,08,19,24.10
2021,08,12,08,20,24.10
2021,08,12,08,21,24.10
2021,08,12,08,22,24.10
2021,08,12,08,23,24.10
2021,08,12,08,24,24.10
2021,08,12,08,25,24.10
2021,08,12,08,26,24.10
2021,08,12,08,27,24.10
2021,08,12,08,28,24.10
2021,08,12,08,29,24.10
2021,08,12,08,30,24.10
2021,08,12,08,31,24.20
2021,08,12,08,32,24.20
2021,08,12,08,33,24.20
2021,08,12,08,34,24.20
2021,08,12,08,35,24.20
2021,08,12,08,36,24.20
2021,08,12,08,37,24.20
2021,08,12,08,38,24.20
2021,08,12,08,39,24.20
2021,08,12,08,40,24.20
2021,08,12,08,41,24.20
2021,08,12,08,42,24.20
2021,08,12,08,43,24.30
2021,08,12,08,44,24.30
2021,08,12,08,45,24.30
2021,08,12,08,46,24.30
2021,08,12,08,47,24.20
2021,08,12,08,48,24.20
2021,08,12,08,49,24.10
2021,08,12,08,50,24.00
2021,08,12,08,51,23.90
2021,08,12,08,52,23.80
2021,08,12,08,53,23.70
2021,08,12,08,54,23.60
2021,08,12,08,55,23.50
2021,08,12,08,56,23.40
2021,08,12,08,57,23.30
2021,08,12,08,58,23.30
2021,08,12,08,59,23.20
2021,08,12,09,00,23.20
2021,08,12,09,01,23.10
2021,08,12,09,02,23.10
2021,08,12,09,03,23.10
2021,08,12,09,04,23.10
2021,08,12,09,05,23.10
2021,08,12,09,06,23.00
2021,08,12,09,07,23.00
2021,08,12,09,08,23.00
2021,08,12,09,09,23.00
2021,08,12,09,10,23.00
2021,08,12,09,11,23.00
2021,08,12,09,12,23.00
2021,08,12,09,13,23.00
2021,08,12,09,14,23.00
2021,08,12,09,15,23.00
2021,08,12,09,16,23.10
2021,08,12,09,17,23.10
2021,08,12,09,18,23.10
2021,08,12,09,19,23.10
2021,08,12,09,20,23.10
2021,08,12,09,21,23.10
2021,08,12,09,22,23.10
2021,08,12,09,23,23.10
2021,08,12,09,24,23.10
2021,08,12,09,25,23.10
2021,08,12,09,26,23.10
2021,08,12,09,27,23.10
2021,08,12,09,28,23.10
2021,08,12,09,29,23.10
2021,08,12,09,30,23.10
2021,08,12,09,31,23.10
2021,08,12,09,32,23.10
2021,08,12,09,33,23.20
2021,08,12,09,34,23.20
2021,08,12,09,35,23.20
2021,08,12,09,36,23.30
2021,08,12,09,37,23.30
2021,08,12,09,38,23.30
2021,08,12,09,39,23.40
2021,08,12,09,40,23.40
2021,08,12,09,41,23.40
2021,08,12,09,42,23.40
2021,08,12,09,43,23.40
2021,08,12,09,44,23.40
2021,08,12,09,45,23.40
2021,08,12,09,46,23.40
2021,08,12,09,47,23.40
2021,08,12,09,48,23.40
2021,08,12,09,49,23.40
2021,08,12,09,50,23.40
2021,08,12,09,51,23.40
2021,08,12,09,52,23.40
2021,08,12,09,53,23.40
2021,08,12,09,54,23.40
2021,08,12,09,55,23.50
2021,08,12,09,56,23.60
2021,08,12,09,57,23.70
2021,08,12,09,58,23.70
2021,08,12,09,59,23.70
2021,08,12,10,00,23.80
2021,08,12,10,01,23.80
2021,08,12,10,02,23.80
2021,08,12,10,03,23.80
2021,08,12,10,04,23.90
2021,08,12,10,05,24.10
2021,08,12,10,06,24.10
2021,08,12,10,07,24.20
2021,08,12,10,08,24.30
2021,08,12,10,09,24.40
2021,08,12,10,10,24.40
2021,08,12,10,11,24.30
2021,08,12,10,12,24.30
2021,08,12,10,13,24.30
2021,08,12,10,14,24.20
2021,08,12,10,15,24.10
2021,08,12,10,16,24.00
2021,08,12,10,17,24.00
2021,08,12,10,18,23.80
2021,08,12,10,19,23.80
2021,08,12,10,20,23.70
2021,08,12,10,21,23.60
2021,08,12,10,22,23.50
2021,08,12,10,23,23.40
2021,08,12,10,24,23.30
2021,08,12,10,25,23.20
2021,08,12,10,26,23.20
2021,08,12,10,27,23.10
2021,08,12,10,28,23.10
2021,08,12,10,29,23.10
2021,08,12,10,30,23.10
2021,08,12,10,31,23.10
2021,08,12,10,32,23.10
2021,08,12,10,33,23.20
2021,08,12,10,34,23.20
2021,08,12,10,35,23.20
2021,08,12,10,36,23.20
2021,08,12,10,37,23.20
2021,08,12,10,38,23.30
2021,08,12,10,39,23.30
2021,08,12,10,40,23.30
2021,08,12,10,41,23.30
2021,08,12,10,42,23.30
2021,08,12,10,43,23.30
2021,08,12,10,44,23.30
2021,08,12,10,45,23.30
2021,08,12,10,46,23.30
2021,08,12,10,47,23.30
2021,08,12,10,48,23.40
2021,08,12,10,49,23.40
2021,08,12,10,50,23.50
2021,08,12,10,51,23.50
2021,08,12,10,52,23.60
2021,08,12,10,53,23.60
2021,08,12,10,54,23.70
2021,08,12,10,55,23.80
2021,08,12,10,56,23.80
2021,08,12,10,57,23.90
2021,08,12,10,58,24.00
2021,08,12,10,59,24.10
2021,08,12,11,00,24.20
2021,08,12,11,01,24.20
2021,08,12,11,02,24.30
2021,08,12,11,03,24.30
2021,08,12,11,04,24.30
2021,08,12,11,05,24.30
2021,08,12,11,06,24.30
2021,08,12,11,07,24.40
2021,08,12,11,08,24.40
2021,08,12,11,09,24.50
2021,08,12,11,10,24.60
2021,08,12,11,11,24.60
2021,08,12,11,12,24.60
2021,08,12,11,13,24.70
2021,08,12,11,14,24.70
2021,08,12,11,15,24.60
2021,08,12,11,16,24.60
2021,08,12,11,17,24.50
2021,08,12,11,18,24.50
2021,08,12,11,19,24.40
2021,08,12,11,20,24.40
2021,08,12,11,21,24.40
2021,08,12,11,22,24.40
2021,08,12,11,23,24.40
2021,08,12,11,24,24.40
2021,08,12,11,25,24.40
2021,08,12,11,26,24.30
2021,08,12,11,27,24.30
2021,08,12,11,28,24.30
2021,08,12,11,29,24.30
2021,08,12,11,30,24.30
2021,08,12,11,31,24.30
2021,08,12,11,32,24.40
2021,08,12,11,33,24.40
2021,08,12,11,34,24.40
2021,08,12,11,35,24.40
2021,08,12,11,36,24.40
2021,08,12,11,37,24.30
2021,08,12,11,38,24.30
2021,08,12,11,39,24.30
2021,08,12,11,40,24.40
2021,08,12,11,41,24.50
2021,08,12,11,42,24.70
2021,08,12,11,43,24.80
2021,08,12,11,44,24.90
2021,08,12,11,45,25.00
2021,08,12,11,46,25.00
2021,08,12,11,47,25.00
2021,08,12,11,48,25.00
2021,08,12,11,49,24.90
2021,08,12,11,50,24.90
2021,08,12,11,51,24.90
2021,08,12,11,52,24.90
2021,08,12,11,53,25.10
2021,08,12,11,54,25.30
2021,08,12,11,55,25.40
2021,08,12,11,56,25.70
2021,08,12,11,57,25.90
2021,08,12,11,58,26.20
2021,08,12,11,59,26.40
2021,08,12,12,00,26.50
2021,08,12,12,01,26.70
2021,08,12,12,02,26.90
2021,08,12,12,03,27.10
2021,08,12,12,04,27.30
2021,08,12,12,05,27.40
2021,08,12,12,06,27.50
2021,08,12,12,07,27.60
2021,08,12,12,08,27.70
2021,08,12,12,09,27.70
2021,08,12,12,10,27.80
2021,08,12,12,11,27.80
2021,08,12,12,12,27.90
2021,08,12,12,13,28.00
2021,08,12,12,14,28.00
2021,08,12,12,15,28.00
2021,08,12,12,16,28.10
2021,08,12,12,17,28.10
2021,08,12,12,18,28.20
2021,08,12,12,19,28.30
2021,08,12,12,20,28.30
2021,08,12,12,21,28.40
2021,08,12,12,22,28.40
2021,08,12,12,23,28.50
2021,08,12,12,24,28.50
2021,08,12,12,25,28.60
2021,08,12,12,26,28.60
2021,08,12,12,27,28.60
2021,08,12,12,28,28.60
2021,08,12,12,29,28.60
2021,08,12,12,30,28.70
2021,08,12,12,31,28.70
2021,08,12,12,32,28.70
2021,08,12,12,33,28.80
2021,08,12,12,34,28.80
2021,08,12,12,35,28.90
2021,08,12,12,36,29.00
2021,08,12,12,37,29.00
2021,08,12,12,38,29.10
2021,08,12,12,39,29.20
2021,08,12,12,40,29.30
2021,08,12,12,41,29.30
2021,08,12,12,42,29.30
2021,08,12,12,43,29.40
2021,08,12,12,44,29.40
2021,08,12,12,45,29.30
2021,08,12,12,46,29.40
2021,08,12,12,47,29.40
2021,08,12,12,48,29.40
2021,08,12,12,49,29.30
2021,08,12,12,50,29.30
2021,08,12,12,51,29.30
2021,08,12,12,52,29.20
2021,08,12,12,53,29.20
2021,08,12,12,54,29.20
2021,08,12,12,55,29.20
2021,08,12,12,56,29.20
2021,08,12,12,57,29.00
2021,08,12,12,58,28.80
2021,08,12,12,59,28.70
2021,08,12,13,00,28.50
2021,08,12,13,01,28.40
2021,08,12,13,02,28.30
2021,08,12,13,03,28.20
2021,08,12,13,04,28.10
2021,08,12,13,05,28.10
2021,08,12,13,06,28.00
2021,08,12,13,07,28.00
2021,08,12,13,08,27.90
2021,08,12,13,09,27.80
2021,08,12,13,10,27.90
2021,08,12,13,11,28.10
2021,08,12,13,12,28.30
2021,08,12,13,13,28.60
2021,08,12,13,14,28.90
2021,08,12,13,15,29.30
2021,08,12,13,16,29.60
2021,08,12,13,17,29.80
2021,08,12,13,18,30.00
2021,08,12,13,19,30.10
2021,08,12,13,20,30.30
2021,08,12,13,21,30.40
2021,08,12,13,22,30.40
2021,08,12,13,23,30.50
2021,08,12,13,24,30.50
2021,08,12,13,25,30.60
2021,08,12,13,26,30.60
2021,08,12,13,27,30.70
2021,08,12,13,28,30.80
2021,08,12,13,29,30.80
2021,08,12,13,30,30.90
2021,08,12,13,31,30.90
2021,08,12,13,32,30.90
2021,08,12,13,33,30.90
2021,08,12,13,34,30.90
2021,08,12,13,35,30.90
2021,08,12,13,36,30.80
2021,08,12,13,37,30.90
2021,08,12,13,38,31.00
2021,08,12,13,39,31.00
2021,08,12,13,40,31.10
2021,08,12,13,41,31.10
2021,08,12,13,42,31.10
2021,08,12,13,43,31.10
2021,08,12,13,44,31.10
2021,08,12,13,45,31.20
2021,08,12,13,46,31.10
2021,08,12,13,47,31.10
2021,08,12,13,48,31.10
2021,08,12,13,49,31.00
2021,08,12,13,50,30.90
2021,08,12,13,51,30.70
2021,08,12,13,52,30.40
2021,08,12,13,53,30.10
2021,08,12,13,54,29.90
2021,08,12,13,55,29.80
2021,08,12,13,56,29.50
2021,08,12,13,57,29.20
2021,08,12,13,58,29.00
2021,08,12,13,59,28.70
2021,08,12,14,00,28.50
2021,08,12,14,01,28.30
2021,08,12,14,02,28.10
2021,08,12,14,03,28.00
2021,08,12,14,04,27.90
2021,08,12,14,05,27.90
2021,08,12,14,06,27.90
2021,08,12,14,07,28.00
2021,08,12,14,08,28.10
2021,08,12,14,09,28.20
2021,08,12,14,10,28.30
2021,08,12,14,11,28.50
2021,08,12,14,12,28.70
2021,08,12,14,13,29.10
2021,08,12,14,14,29.40
2021,08,12,14,15,29.70
2021,08,12,14,16,29.90
2021,08,12,14,17,30.20
2021,08,12,14,18,30.40
2021,08,12,14,19,30.60
2021,08,12,14,20,30.70
2021,08,12,14,21,30.80
2021,08,12,14,22,30.80
2021,08,12,14,23,30.70
2021,08,12,14,24,30.50
2021,08,12,14,25,30.20
2021,08,12,14,26,29.90
2021,08,12,14,27,29.60
2021,08,12,14,28,29.30
2021,08,12,14,29,29.10
2021,08,12,14,30,28.90
2021,08,12,14,31,28.90
2021,08,12,14,32,28.90
2021,08,12,14,33,29.00
2021,08,12,14,34,29.10
2021,08,12,14,35,29.20
2021,08,12,14,36,29.30
2021,08,12,14,37,29.50
2021,08,12,14,38,29.50
2021,08,12,14,39,29.60
2021,08,12,14,40,29.70
2021,08,12,14,41,29.60
2021,08,12,14,42,29.50
2021,08,12,14,43,29.50
2021,08,12,14,44,29.50
2021,08,12,14,45,29.60
2021,08,12,14,46,29.70
2021,08,12,14,47,29.80
2021,08,12,14,48,29.80
2021,08,12,14,49,29.90
2021,08,12,14,50,29.80
2021,08,12,14,51,29.70
2021,08,12,14,52,29.60
2021,08,12,14,53,29.50
2021,08,12,14,54,29.20
2021,08,12,14,55,28.90
2021,08,12,14,56,28.70
2021,08,12,14,57,28.60
2021,08,12,14,58,28.50
2021,08,12,14,59,28.40
2021,08,12,15,00,28.30
2021,08,12,15,01,28.30
2021,08,12,15,02,28.30
2021,08,12,15,03,28.30
2021,08,12,15,04,28.40
2021,08,12,15,05,28.40
2021,08,12,15,06,28.60
2021,08,12,15,07,28.80
2021,08,12,15,08,29.00
2021,08,12,15,09,29.30
2021,08,12,15,10,29.50
2021,08,12,15,11,29.70
2021,08,12,15,12,30.10
2021,08,12,15,13,30.50
2021,08,12,15,14,30.80
2021,08,12,15,15,31.00
2021,08,12,15,16,31.30
2021,08,12,15,17,31.50
2021,08,12,15,18,31.70
2021,08,12,15,19,31.90
2021,08,12,15,20,31.90
2021,08,12,15,21,32.10
2021,08,12,15,22,32.20
2021,08,12,15,23,32.30
2021,08,12,15,24,32.40
2021,08,12,15,25,32.50
2021,08,12,15,26,32.60
2021,08,12,15,27,32.60
2021,08,12,15,28,32.60
2021,08,12,15,29,32.50
2021,08,12,15,30,32.50
2021,08,12,15,31,32.50
2021,08,12,15,32,32.40
2021,08,12,15,33,32.50
2021,08,12,15,34,32.50
2021,08,12,15,35,32.60
2021,08,12,15,36,32.70
2021,08,12,15,37,32.80
2021,08,12,15,38,32.80
2021,08,12,15,39,32.70
2021,08,12,15,40,32.70
2021,08,12,15,41,32.60
2021,08,12,15,42,32.50
2021,08,12,15,43,32.40
2021,08,12,15,44,32.20
2021,08,12,15,45,32.00
2021,08,12,15,46,32.00
2021,08,12,15,47,31.90
2021,08,12,15,48,32.00
2021,08,12,15,49,32.00
2021,08,12,15,50,32.00
2021,08,12,15,51,32.00
2021,08,12,15,52,32.00
2021,08,12,15,53,32.00
2021,08,12,15,54,32.10
2021,08,12,15,55,32.20
2021,08,12,15,56,32.20
2021,08,12,15,57,32.30
2021,08,12,15,58,32.40
2021,08,12,15,59,32.40
2021,08,12,16,00,32.30
2021,08,12,16,01,32.30
2021,08,12,16,02,32.10
2021,08,12,16,03,32.00
2021,08,12,16,04,31.70
2021,08,12,16,05,31.40
2021,08,12,16,06,31.20
2021,08,12,16,07,31.00
2021,08,12,16,08,30.90
2021,08,12,16,09,30.80
2021,08,12,16,10,30.90
2021,08,12,16,11,31.00
2021,08,12,16,12,31.30
2021,08,12,16,13,31.60
2021,08,12,16,14,32.00
2021,08,12,16,15,32.20
2021,08,12,16,16,32.40
2021,08,12,16,17,32.50
2021,08,12,16,18,32.60
2021,08,12,16,19,32.70
2021,08,12,16,20,32.80
2021,08,12,16,21,32.90
2021,08,12,16,22,32.90
2021,08,12,16,23,32.90
2021,08,12,16,24,32.90
2021,08,12,16,25,32.90
2021,08,12,16,26,32.90
2021,08,12,16,27,32.70
2021,08,12,16,28,32.60
2021,08,12,16,29,32.40
2021,08,12,16,30,32.10
2021,08,12,16,31,31.70
2021,08,12,16,32,31.40
2021,08,12,16,33,31.20
2021,08,12,16,34,31.00
2021,08,12,16,35,30.80
2021,08,12,16,36,30.80
2021,08,12,16,37,30.70
2021,08,12,16,38,30.60
2021,08,12,16,39,30.60
2021,08,12,16,40,30.50
2021,08,12,16,41,30.50
2021,08,12,16,42,30.50
2021,08,12,16,43,30.40
2021,08,12,16,44,30.50
2021,08,12,16,45,30.50
2021,08,12,16,46,30.70
2021,08,12,16,47,30.90
2021,08,12,16,48,31.00
2021,08,12,16,49,31.10
2021,08,12,16,50,31.10
2021,08,12,16,51,31.10
2021,08,12,16,52,31.10
2021,08,12,16,53,31.10
2021,08,12,16,54,31.20
2021,08,12,16,55,31.30
2021,08,12,16,56,31.50
2021,08,12,16,57,31.60
2021,08,12,16,58,31.60
2021,08,12,16,59,31.60
2021,08,12,17,00,31.50
2021,08,12,17,01,31.40
2021,08,12,17,02,31.30
2021,08,12,17,03,31.20
2021,08,12,17,04,31.20
2021,08,12,17,05,31.20
2021,08,12,17,06,31.10
2021,08,12,17,07,31.00
2021,08,12,17,08,31.00
2021,08,12,17,09,30.90
2021,08,12,17,10,30.80
2021,08,12,17,11,30.70
2021,08,12,17,12,30.60
2021,08,12,17,13,30.50
2021,08,12,17,14,30.40
2021,08,12,17,15,30.30
2021,08,12,17,16,30.30
2021,08,12,17,17,30.30
2021,08,12,17,18,30.40
2021,08,12,17,19,30.50